This is the latest recevied weather packets stored in our database for station/object WD7CGF. If no packets are shown the sender has not sent any weather packets the latest 10 day(s).
| Time | Temp. | Humidity | Pressure | Rain* | Wind** | Luminosity | Snow |
|---|---|---|---|---|---|---|---|
| 1787779713 | 32.22° C | 28% | 1011.1 hPa | 0 mm | - | - | - |
| 1787779127 | 31.67° C | 29% | 1011.1 hPa | 0 mm | - | - | - |
| 1787778520 | 31.67° C | 29% | 1011 hPa | 0 mm | - | - | - |
| 1787777913 | 31.67° C | 33% | 1011.5 hPa | 0 mm | - | - | - |
| 1787777327 | 31.11° C | 33% | 1011.5 hPa | 0 mm | - | - | - |
| 1787776721 | 31.11° C | 35% | 1011.6 hPa | 0 mm | - | - | - |
| 1787776116 | 30.56° C | 34% | 1011.8 hPa | 0 mm | - | - | - |
| 1787775528 | 30° C | 38% | 1011.8 hPa | 0 mm | - | - | - |
| 1787774928 | 30° C | 44% | 1012.1 hPa | 0 mm | - | - | - |
| 1787774322 | 29.44° C | 40% | 1012.1 hPa | 0 mm | - | - | - |
| 1787773716 | 29.44° C | 40% | 1012.1 hPa | 0 mm | - | - | - |
| 1787773128 | 29.44° C | 40% | 1012.5 hPa | 0 mm | - | - | - |
| 1787772521 | 28.33° C | 44% | 1012.8 hPa | 0 mm | - | - | - |
| 1787771912 | 27.78° C | 45% | 1012.8 hPa | 0 mm | - | - | - |
| 1787771326 | 27.22° C | 49% | 1012.7 hPa | 0 mm | - | - | - |
| 1787770720 | 27.22° C | 50% | 1013.2 hPa | 0 mm | - | - | - |
| 1787770123 | 26.67° C | 51% | 1013.2 hPa | 0 mm | - | - | - |
| 1787769515 | 26.11° C | 50% | 1013.4 hPa | 0 mm | - | - | - |
| 1787768928 | 25.56° C | 56% | 1013.6 hPa | 0 mm | - | - | - |
| 1787768321 | 25.56° C | 53% | 1013.6 hPa | 0 mm | - | - | - |
| 1787767714 | 25.56° C | 55% | 1013.6 hPa | 0 mm | - | - | - |
| 1787767127 | 25° C | 56% | 1013.8 hPa | 0 mm | - | - | - |
| 1787766520 | 24.44° C | 58% | 1013.8 hPa | 0 mm | - | - | - |
| 1787765919 | 23.89° C | 60% | 1013.8 hPa | 0 mm | - | - | - |
| 1787765312 | 23.89° C | 60% | 1013.9 hPa | 0 mm | - | - | - |
* Rain latest hour (hover to see other rain measurements)
** Current wind speed in m/s (hover to see current wind gust speed)